Change the Weather History Date:

Friday, January 13, 2012

  Actual Average Record
Temperature  
Mean Temperature 18 °F 28 °F  
Max Temperature 20 °F 36 °F 66 °F (2013)
Min Temperature 15 °F 21 °F 9 °F (2009)
Degree Days  
Heating Degree Days 47 36  
Month to date heating degree days 394 468  
Since 1 July heating degree days 2126 2572  
Cooling Degree Days 0 0  
Month to date cooling degree days 0 0  
Year to date cooling degree days 0 0  
Moisture  
Dew Point 10 °F    
Average Humidity 71    
Maximum Humidity 74    
Minimum Humidity 67    
Precipitation  
Precipitation T in 0.08 in 1.37 in (2005)
Month to date precipitation 0.52 1.21  
Year to date precipitation 0.52 1.21  
Sea Level Pressure  
Sea Level Pressure 29.90 in    
Wind  
Wind Speed 18 mph (WSW)    
Max Wind Speed 28 mph    
Max Gust Speed 36 mph    
Visibility 6 miles    
Events Snow    
T = Trace of Precipitation, MM = Missing Value Source: NWS Daily Summary

Daily Weather History Graph

Daily Weather History Graph

Search for Another Location

Airport or City:

Trip Planner

Search our weather history database for the weather conditions in past years. The results will help you decide how hot, cold, wet, or windy it might be!

Date:

Astronomy

Jan. 13, 2012 Rise Set
Actual Time 8:02 AM EST 5:40 PM EST
Civil Twilight 7:33 AM EST 6:10 PM EST
Nautical Twilight 6:59 AM EST 6:43 PM EST
Astronomical Twilight 6:27 AM EST 7:16 PM EST
Moon 10:51 PM EST (1/13) 10:18 AM EST (1/13)
Length of Visible Light 10h 37m
Length of Day
9h 38m
Waning Gibbous, 79% of the Moon is Illuminated
Jan 13
Waning Gibbous
Jan 16
Last Quarter
Jan 23
New
Jan 30
First Quarter
Feb 7
Full

Hourly Weather History & Observations

Time (EST) Temp. Windchill Dew Point Humidity Pressure Visibility Wind Dir Wind Speed Gust Speed Precip Events Conditions
12:13 AM 17.6 °F 2.2 °F 10.4 °F 73% 29.65 in 2.5 mi WSW 17.3 mph 29.9 mph 0.00 in Snow Light Snow
12:43 AM 17.6 °F 0.9 °F 10.4 °F 73% 29.66 in 4.0 mi WSW 20.7 mph 28.8 mph 0.00 in Snow Light Snow
12:53 AM 17.1 °F 0.6 °F 9.0 °F 71% 29.69 in 6.0 mi WSW 19.6 mph 27.6 mph 0.00 in Snow Light Snow
1:53 AM 17.1 °F 0.1 °F 9.0 °F 71% 29.70 in 8.0 mi WSW 20.7 mph 32.2 mph 0.00 in Snow Light Snow
2:53 AM 17.1 °F -1.0 °F 9.0 °F 71% 29.72 in 9.0 mi WSW 24.2 mph 32.2 mph 0.00 in Snow Light Snow
3:03 AM 17.6 °F 0.5 °F 8.6 °F 68% 29.69 in 6.0 mi WSW 21.9 mph 28.8 mph 0.00 in Snow Light Snow
3:53 AM 17.1 °F 0.1 °F 9.0 °F 71% 29.74 in 6.0 mi WSW 20.7 mph 28.8 mph 0.00 in Snow Light Snow
4:53 AM 17.1 °F -0.6 °F 9.0 °F 71% 29.75 in 9.0 mi WSW 23.0 mph 28.8 mph 0.00 in Snow Light Snow
5:53 AM 17.1 °F -1.0 °F 9.0 °F 71% 29.77 in 7.0 mi West 24.2 mph 31.1 mph 0.00 in Snow Light Snow
6:34 AM 17.6 °F 2.7 °F 10.4 °F 73% 29.76 in 2.5 mi West 16.1 mph - 0.00 in Snow Light Snow
6:53 AM 16.0 °F -1.3 °F 9.0 °F 74% 29.81 in 4.0 mi West 20.7 mph 27.6 mph 0.00 in Snow Light Snow
7:53 AM 16.0 °F -1.7 °F 8.1 °F 71% 29.84 in 8.0 mi WSW 21.9 mph 29.9 mph 0.00 in Snow Light Snow
8:53 AM 15.1 °F -2.5 °F 7.0 °F 70% 29.88 in 7.0 mi West 20.7 mph 27.6 mph 0.00 in Snow Light Snow
9:53 AM 17.1 °F 1.5 °F 9.0 °F 71% 29.91 in 6.0 mi WSW 17.3 mph 26.5 mph 0.00 in Snow Light Snow
10:53 AM 18.0 °F 0.6 °F 9.0 °F 68% 29.93 in 8.0 mi West 23.0 mph 29.9 mph 0.00 in Snow Light Snow
11:53 AM 19.0 °F 4.0 °F 10.9 °F 71% 29.94 in 4.0 mi West 17.3 mph 25.3 mph 0.00 in Snow Light Snow
12:53 PM 19.0 °F 2.7 °F 10.0 °F 68% 29.95 in 9.0 mi West 20.7 mph 28.8 mph 0.00 in   Overcast
1:53 PM 19.9 °F 4.8 °F 10.9 °F 68% 29.96 in 6.0 mi West 18.4 mph - 0.00 in Snow Light Snow
2:53 PM 19.0 °F 5.0 °F 10.9 °F 71% 29.99 in 4.0 mi WSW 15.0 mph - 0.00 in Snow Light Snow
3:42 PM 19.4 °F 5.0 °F 10.4 °F 68% 29.96 in 2.5 mi WSW 16.1 mph - 0.00 in Snow Light Snow
3:53 PM 19.0 °F 4.0 °F 12.0 °F 74% 30.01 in 1.5 mi WSW 17.3 mph - 0.00 in Snow Light Snow
4:07 PM 19.4 °F 5.0 °F 12.2 °F 74% 29.97 in 3.0 mi WSW 16.1 mph - 0.00 in Snow Light Snow
4:53 PM 19.9 °F 6.7 °F 10.9 °F 68% 30.04 in 6.0 mi WSW 13.8 mph - 0.00 in Snow Light Snow
5:53 PM 19.9 °F 5.7 °F 10.9 °F 68% 30.06 in 10.0 mi WSW 16.1 mph 20.7 mph 0.00 in   Overcast
6:46 PM 19.4 °F 5.5 °F 12.2 °F 74% 30.04 in 7.0 mi WSW 15.0 mph - 0.00 in Snow Light Snow
6:53 PM 19.9 °F 7.3 °F 12.0 °F 71% 30.08 in 6.0 mi WSW 12.7 mph - 0.00 in Snow Light Snow
7:53 PM 19.0 °F 6.8 °F 12.0 °F 74% 30.10 in 7.0 mi WSW 11.5 mph - 0.00 in Snow Light Snow
8:53 PM 19.9 °F 7.3 °F 10.9 °F 68% 30.10 in 10.0 mi WSW 12.7 mph - 0.00 in   Overcast
10:15 PM 19.4 °F 7.9 °F 12.2 °F 74% 30.07 in 10.0 mi WSW 10.4 mph - N/A   Overcast
10:53 PM 19.9 °F 7.9 °F 12.0 °F 71% 30.11 in 10.0 mi WSW 11.5 mph - N/A   Overcast
11:53 PM 19.9 °F 8.6 °F 12.0 °F 71% 30.11 in 10.0 mi West 10.4 mph - 0.00 in   Overcast